Total_Precipitation_Accumulation
3.42 3.51 3.46 3.43 3.10 3.13 3.34 3.68 3.54 3.73 3.71 3.28 2.82 2.65 2.63 2.64 2.59 2.71 3.01 3.04 2.83 2.93 3.72 4.20 4.08 3.74 3.27 2.78 2.48 2.32 2.24 2.01 1.79 1.54 1.46 1.56 1.57 1.54 1.42 1.21 1.06 0.91 0.74
3.77 3.81 3.75 3.69 3.28 3.13 3.43 3.76 3.75 4.27 4.16 3.96 3.40 3.04 2.83 2.80 2.76 2.87 3.21 3.41 3.31 3.25 3.73 4.33 4.59 4.52 4.07 3.48 2.97 2.65 2.58 2.47 2.21 1.78 1.60 1.70 1.76 1.66 1.59 1.42 1.20 1.02 0.81
3.94 3.81 3.80 3.63 3.51 3.43 3.60 3.67 3.80 4.23 4.00 3.96 3.81 3.48 3.25 3.02 2.84 3.05 3.44 3.80 3.40 3.31 3.69 4.23 4.66 4.66 4.50 4.21 3.64 3.20 2.86 2.63 2.45 2.10 1.78 1.65 1.68 1.63 1.55 1.47 1.30 1.06 0.80
3.92 3.99 3.75 3.54 3.62 3.57 3.76 4.08 4.09 4.18 4.33 4.26 4.03 3.72 3.54 3.44 2.98 3.01 3.16 3.36 3.61 3.12 3.53 4.23 4.51 4.29 4.40 4.62 4.54 4.25 3.72 3.08 2.78 2.44 2.09 1.85 1.78 1.68 1.56 1.46 1.35 1.12 0.83
3.71 4.07 3.91 3.89 3.80 4.01 3.92 3.59 4.20 4.42 4.43 4.32 3.72 3.69 3.30 3.26 3.18 2.93 3.05 3.11 3.33 3.28 3.34 3.48 4.09 3.94 4.19 4.75 5.07 5.16 4.85 4.17 3.47 2.99 2.61 2.31 2.14 1.87 1.65 1.51 1.38 1.15 0.90
3.71 4.01 3.80 3.75 3.90 4.30 4.36 4.22 4.51 4.43 4.27 4.32 3.63 3.44 3.16 2.85 2.84 2.81 2.62 2.86 2.93 2.66 2.89 3.15 3.57 3.05 3.32 3.86 4.41 5.07 5.45 5.34 4.59 3.76 3.37 3.12 2.90 2.43 1.91 1.62 1.40 1.21 1.02
3.57 3.94 3.63 4.00 4.03 4.22 4.36 4.30 4.54 4.44 4.20 4.31 4.29 3.70 3.07 2.66 2.58 2.38 2.39 2.63 2.56 2.60 2.94 3.41 3.70 3.56 3.15 3.10 3.40 4.16 5.12 5.67 5.40 4.64 4.19 3.91 3.66 3.14 2.38 1.95 1.57 1.29 1.15
3.32 3.42 3.94 3.91 4.01 4.23 4.30 4.24 4.29 4.07 3.78 4.14 4.47 4.30 3.55 3.08 2.63 2.15 2.39 2.41 2.54 2.83 2.85 2.91 3.37 3.75 3.54 3.55 3.11 3.12 4.25 5.36 5.85 5.60 5.21 4.82 4.40 3.63 2.88 2.37 1.86 1.49 1.32
3.35 3.48 3.74 3.83 3.92 3.80 4.04 4.22 4.02 3.97 3.86 3.89 4.15 4.41 3.91 3.25 2.73 2.40 2.27 2.33 2.69 2.95 2.79 2.74 2.72 2.99 3.07 3.55 3.70 3.16 3.33 3.77 4.61 5.69 6.09 5.89 5.04 3.88 3.14 2.72 2.34 1.87 1.52
3.12 3.24 3.41 3.60 3.74 3.63 3.80 3.65 3.73 3.93 3.97 3.78 3.88 3.81 3.73 3.49 3.30 2.86 2.45 2.34 2.58 2.68 2.65 2.43 2.42 2.75 2.91 3.40 3.56 2.96 2.64 2.60 2.97 4.17 5.35 5.60 5.11 4.10 3.36 3.14 3.08 2.66 2.03
2.91 2.89 3.11 3.33 3.46 3.35 3.32 3.52 3.86 3.81 3.72 3.68 3.81 3.83 3.98 3.80 3.45 3.29 2.91 2.63 2.50 2.26 2.33 2.38 2.35 2.44 2.66 3.06 3.24 2.71 2.55 2.32 2.24 2.64 3.45 4.08 4.35 4.06 3.60 3.51 3.78 3.74 3.26
2.81 2.74 2.83 3.17 3.28 3.22 3.20 3.30 3.39 3.44 3.48 3.65 3.65 3.54 3.77 3.80 3.62 3.66 3.28 2.90 2.60 2.12 2.05 2.13 2.24 2.36 2.49 2.68 2.42 2.29 2.40 2.21 2.05 2.05 2.33 2.80 3.28 3.54 3.48 3.59 3.93 4.22 4.22
2.73 2.72 2.72 2.87 2.81 2.81 2.91 3.14 3.17 3.12 3.17 3.29 3.26 3.29 3.28 3.19 3.29 3.47 3.43 2.97 2.61 2.10 2.03 1.92 1.94 2.17 2.17 2.51 2.56 2.41 2.24 2.10 1.95 1.91 1.99 2.11 2.41 2.72 3.01 3.26 3.70 4.13 4.36
2.64 2.60 2.54 2.50 2.43 2.45 2.50 2.87 2.95 2.89 2.99 3.02 2.91 3.18 3.03 2.85 3.03 3.04 3.14 3.28 3.01 2.64 2.53 2.27 1.90 1.93 2.16 2.40 2.52 2.43 2.09 2.09 1.93 1.86 1.85 1.87 1.98 2.12 2.32 2.58 2.89 3.16 3.45
2.26 2.35 2.32 2.23 2.20 2.30 2.45 2.59 2.61 2.62 2.77 2.74 2.76 2.83 2.65 2.63 2.73 2.75 2.92 3.20 3.31 3.07 2.91 2.69 2.27 2.01 2.07 2.30 2.61 2.35 2.19 2.10 1.92 1.81 1.70 1.66 1.68 1.73 1.80 1.93 2.12 2.33 2.47
2.24 2.17 2.12 2.05 2.06 2.11 2.20 2.38 2.36 2.46 2.45 2.42 2.56 2.60 2.55 2.50 2.65 2.60 2.65 2.88 3.12 3.18 2.96 2.67 2.41 2.09 2.18 2.13 2.35 2.26 2.25 2.21 1.93 1.73 1.56 1.47 1.47 1.53 1.62 1.69 1.75 1.87 1.93
2.32 2.29 2.22 2.18 2.04 1.98 2.07 2.18 2.05 2.19 2.19 2.19 2.17 2.24 2.27 2.43 2.57 2.54 2.60 2.66 2.93 3.23 3.13 2.89 2.64 2.46 2.38 2.35 2.19 2.12 2.03 1.93 1.74 1.62 1.42 1.33 1.32 1.35 1.40 1.48 1.57 1.69 1.76
1.98 2.00 1.96 1.97 1.96 2.05 2.15 2.06 2.00 2.04 2.12 2.09 2.16 2.31 2.20 2.35 2.51 2.45 2.56 2.57 2.74 3.09 3.23 3.32 3.27 2.97 2.70 2.55 2.49 2.28 1.88 1.72 1.75 1.71 1.52 1.37 1.30 1.28 1.27 1.29 1.38 1.52 1.63
1.94 1.91 1.90 1.90 1.92 2.10 2.23 2.17 2.14 2.21 2.23 2.12 2.22 2.26 2.14 2.27 2.33 2.35 2.41 2.47 2.64 2.85 3.12 3.09 3.14 3.06 2.89 2.64 2.75 2.46 2.13 2.07 1.70 1.65 1.58 1.42 1.33 1.28 1.25 1.26 1.30 1.34 1.42
1.99 2.05 2.05 2.00 2.01 1.96 2.00 2.14 2.27 2.27 2.24 2.15 2.14 2.06 1.94 1.94 2.03 2.20 2.21 2.34 2.56 2.77 2.96 2.91 2.97 3.07 3.12 3.10 3.14 2.89 2.69 2.45 2.08 1.67 1.68 1.50 1.43 1.32 1.20 1.15 1.16 1.22 1.33
1.93 2.14 2.16 2.11 2.10 1.99 1.86 1.96 2.07 2.01 2.06 2.03 1.97 1.80 1.61 1.65 1.75 1.84 1.77 2.12 2.44 2.57 2.66 2.74 2.83 3.03 3.16 3.37 3.19 3.04 2.92 2.85 2.54 2.12 2.05 1.70 1.56 1.35 1.19 1.14 1.15 1.15 1.22
2.05 2.09 2.05 2.06 1.96 1.68 1.74 1.70 1.67 1.72 1.80 1.82 1.86 1.82 1.66 1.55 1.50 1.54 1.52 1.68 2.00 2.16 2.36 2.65 2.78 2.98 3.08 3.11 3.28 3.25 3.19 3.04 2.75 2.43 2.42 2.31 2.13 1.97 1.68 1.37 1.28 1.14 1.08
1.99 1.89 1.82 1.84 1.79 1.72 1.58 1.39 1.36 1.47 1.65 1.74 1.78 1.80 1.57 1.43 1.50 1.38 1.46 1.52 1.54 1.63 1.79 2.17 2.45 2.56 2.62 2.68 2.99 3.10 3.09 2.97 2.88 2.72 2.78 2.73 2.58 2.33 1.89 1.68 1.58 1.33 1.20
1.85 1.86 1.74 1.74 1.82 1.71 1.61 1.37 1.27 1.25 1.44 1.50 1.49 1.52 1.57 1.55 1.46 1.50 1.48 1.47 1.38 1.40 1.48 1.51 1.66 1.88 2.16 2.41 2.63 2.84 3.12 3.07 3.00 2.91 2.88 2.96 2.79 2.62 2.23 1.93 1.79 1.53 1.43
1.80 1.80 1.79 1.81 1.80 1.74 1.67 1.46 1.36 1.35 1.46 1.47 1.50 1.51 1.60 1.66 1.66 1.51 1.45 1.48 1.49 1.52 1.48 1.48 1.42 1.50 1.64 1.78 1.96 2.25 2.61 2.94 3.14 3.12 2.91 3.00 2.94 2.95 2.87 2.47 2.03 1.79 1.54
1.79 1.79 1.85 1.83 1.74 1.70 1.57 1.38 1.36 1.39 1.58 1.67 1.78 1.77 1.67 1.54 1.53 1.41 1.42 1.51 1.49 1.50 1.43 1.40 1.35 1.31 1.30 1.43 1.60 1.79 2.08 2.46 2.75 2.90 2.82 2.96 3.12 3.46 3.59 3.07 2.46 2.03 1.79